Weather History for Milford, UT

Change the Weather History Date:

Friday, August 15, 2014

  Actual Average Record
Temperature  
Mean Temperature 76 °F -  
Max Temperature 91 °F 89 °F 98 °F (2002)
Min Temperature 61 °F 55 °F 46 °F (2013)
Cooling Degree Days 11    
Growing Degree Days 26 (Base 50)    
Moisture  
Dew Point 46 °F    
Average Humidity 35    
Maximum Humidity 70    
Minimum Humidity 11    
Precipitation  
Precipitation 0.00 in - - ()
Sea Level Pressure  
Sea Level Pressure 29.94 in    
Wind  
Wind Speed 11 mph (SSW)    
Max Wind Speed 23 mph    
Max Gust Speed 31 mph    
Visibility 10 miles    
Events      
Averages and records for this station are not official NWS values.
T = Trace of Precipitation, MM = Missing Value Source: NWS Daily Summary

Daily Weather History Graph

Daily Weather History Graph

Search for Another Location

Airport:

Trip Planner

Search our weather history database for the weather conditions in past years. The results will help you decide how hot, cold, wet, or windy it might be!

Date:

Astronomy

Aug. 15, 2014 Rise Set
Actual Time 6:46 AM MDT 8:25 PM MDT
Civil Twilight 6:18 AM MDT 8:53 PM MDT
Nautical Twilight 5:44 AM MDT 9:27 PM MDT
Astronomical Twilight 5:07 AM MDT 10:04 PM MDT
Moon 11:36 PM MDT (8/15) 12:28 PM MDT (8/15)
Length of Visible Light 14h 35m
Length of Day
13h 39m
Waning Gibbous, 68% of the Moon is Illuminated
Aug 15
Waning Gibbous
Aug 17
Last Quarter
Aug 25
New
Sep 2
First Quarter
Sep 8
Full

Hourly Weather History & Observations

Time (MDT) Temp. Heat Index Dew Point Humidity Pressure Visibility Wind Dir Wind Speed Gust Speed Precip Events Conditions
12:52 AM 71.1 °F - 48.0 °F 44% 29.91 in 10.0 mi South 12.7 mph - N/A   Clear
1:52 AM 70.0 °F - 51.1 °F 51% 29.91 in 10.0 mi South 11.5 mph - N/A   Clear
2:52 AM 66.9 °F - 51.1 °F 57% 29.91 in 10.0 mi South 9.2 mph - N/A   Clear
3:52 AM 66.0 °F - 52.0 °F 60% 29.91 in 10.0 mi South 8.1 mph - N/A   Clear
4:52 AM 62.1 °F - 51.1 °F 67% 29.93 in 10.0 mi SSE 5.8 mph - N/A   Clear
5:52 AM 63.0 °F - 52.0 °F 67% 29.94 in 10.0 mi South 5.8 mph - N/A   Clear
6:52 AM 62.1 °F - 52.0 °F 70% 29.96 in 10.0 mi SSW 9.2 mph - N/A   Clear
7:52 AM 66.2 °F - 53.6 °F 64% 30.19 in 10.0 mi South 5.8 mph - N/A   Clear
8:52 AM 73.9 °F - 54.0 °F 50% 29.99 in 10.0 mi SSW 10.4 mph - N/A   Scattered Clouds
9:52 AM 78.1 °F - 54.0 °F 43% 29.98 in 10.0 mi South 10.4 mph - N/A   Clear
10:52 AM 80.1 °F 79.9 °F 53.1 °F 39% 29.99 in 10.0 mi SSW 13.8 mph - N/A   Clear
11:52 AM 84.9 °F - 46.9 °F 27% 29.99 in 10.0 mi SW 12.7 mph 25.3 mph N/A   Clear
12:52 PM 87.1 °F - 44.1 °F 22% 29.96 in 10.0 mi SW 11.5 mph 24.2 mph N/A   Clear
1:52 PM 88.0 °F - 46.0 °F 23% 29.94 in 10.0 mi SSW 19.6 mph 25.3 mph N/A   Clear
2:52 PM 87.8 °F - 44.6 °F 22% 30.14 in 10.0 mi South 15.0 mph 25.3 mph N/A   Clear
3:52 PM 91.9 °F - 42.1 °F 18% 29.89 in 10.0 mi SSW 23.0 mph 31.1 mph N/A   Clear
4:52 PM 91.0 °F - 42.1 °F 18% 29.88 in 10.0 mi SSW 10.4 mph 25.3 mph N/A   Clear
5:52 PM 91.0 °F - 44.1 °F 20% 29.87 in 10.0 mi SSW 16.1 mph 28.8 mph N/A   Clear
6:52 PM 90.0 °F - 43.0 °F 19% 29.86 in 10.0 mi SSW 18.4 mph 25.3 mph N/A   Clear
7:52 PM 86.0 °F - 39.9 °F 20% 29.86 in 10.0 mi SSW 15.0 mph - N/A   Clear
8:52 PM 81.0 °F - 37.9 °F 21% 29.87 in 10.0 mi SSW 11.5 mph - N/A   Clear
9:52 PM 75.9 °F - 36.0 °F 23% 29.90 in 10.0 mi SSW 11.5 mph - N/A   Clear
11:52 PM 75.0 °F - 35.1 °F 23% 29.91 in 10.0 mi South 12.7 mph - N/A   Clear